{"data":{"norad_id":39150,"intl_designator":"2013-018A","name":"GAOFEN-1","alt_names":[],"object_type":"PAYLOAD","status":"ACTIVE","operator":null,"country":"PRC","launch_date":"2013-04-26","launch_site_code":"JSC","launch_vehicle":null,"mission":null,"orbit_class":"UNKNOWN","rcs_meters":2.587,"size_class":null,"mass_kg":null,"dimensions":null,"purposes":["earth_obs"],"wikipedia_slug":null,"has_3d_model":false,"image_url":null,"decayed_at":null,"tle_current":{"epoch":"2026-05-25T05:24:28.650240Z","epoch_age_seconds":54871,"freshness":"FRESH","line1":"1 39150U 13018A   26145.22533160  .00000410  00000+0  66043-4 0  9998","line2":"2 39150  97.9094 217.7588 0016613 344.9373  15.1340 14.76545982704855","mean_motion":14.76545982,"eccentricity":0.0016613,"inclination_deg":97.9094,"raan_deg":217.7588,"arg_perigee_deg":344.9373,"mean_anomaly_deg":15.134,"bstar":6.6043e-5,"rev_number":70485,"period_min":97.524900514747,"perigee_km":628.58839584374,"apogee_km":651.90768197402,"semimajor_km":7018.3850389089,"source":"CELESTRAK","updated_at":"2026-05-25T13:38:12.782039Z"}}}